Regional Weather Roundup
Issued by NWS

Home | Current Version | Previous Version | Text Only | Print | Product List | Glossary Off
Versions: 1 2 3 4 5 6 7 8 9 10 11 12 13 14 15 16 17 18 19 20 21 22 23 24 25 26 27 28 29 30 31 32 33 34 35 36 37 38 39 40 41 42 43 44 45 46 47 48 49 50

000
ASUS44 KMEG 222110
RWRTN
TENNESSEE HOURLY STATE WEATHER ROUNDUP
NATIONAL WEATHER SERVICE MEMPHIS TN
400 PM CDT WED MAR 22 2017

TNZ002-004-019-021-049-052-054-088>092-222200-
WEST TENNESSEE

CITY           SKY/WX    TMP DP  RH WIND       PRES   REMARKS
MEMPHIS INTL   MOSUNNY   64  35  34 NE12      30.25F
NWS MEMPHIS      N/A     62 N/A N/A MISG        N/A
JACKSON        SUNNY     61  29  29 NE9       30.26F
DYERSBURG      SUNNY     59  32  36 NE13G20   30.29F
SOMERVILLE     SUNNY     63  34  34 VRB5G13   30.24S
BOLIVAR        SUNNY     63  32  31 NE9G16    30.23F
PARIS          SUNNY     55  25  30 NE9       30.30S
HUNTINGDON     SUNNY     59  27  29 NE12      30.27F
SAVANNAH       SUNNY     63  27  25 VRB5G16   30.23F
$$

TNZ008-025-027-028-033-062-065-066-222200-
NORTH MIDDLE TENNESSEE

CITY           SKY/WX    TMP DP  RH WIND       PRES   REMARKS
NASHVILLE      PTSUNNY   58  20  22 NE12      30.30S
PORTLAND       SUNNY     54  18  24 NE10G17   30.31S
CLARKSVILLE    SUNNY     56  17  21 NE12      30.32F
SMYRNA         CLOUDY    58  20  22 N14       30.30S
COOKEVILLE     SUNNY     54  18  24 N9        30.26S
GALLATIN       SUNNY     55  14  19 N13       30.33S
CROSSVILLE     SUNNY     54  13  19 N10       30.25S
$$

TNZ061-075-076-078-094-096-097-222200-
SOUTH MIDDLE TENNESSEE

CITY           SKY/WX    TMP DP  RH WIND       PRES   REMARKS
FAYETTEVILLE   SUNNY     61  30  31 N13       30.23F
TULLAHOMA      SUNNY     57  12  17 NE9       30.26S
WINCHESTER     SUNNY     57  25  28 NE10      30.25R
MCMINNVILLE    SUNNY     55  18  22 NE14      30.26S
COLUMBIA       SUNNY     57  25  28 E9        30.26F
SHELBYVILLE    SUNNY     59  27  29 NE8G23    30.27S
$$

TNZ017-018-042-046-047-222200-
NORTHEAST TENNESSEE

CITY           SKY/WX    TMP DP  RH WIND       PRES   REMARKS
TRI CITIES     MOSUNNY   55  16  21 E6        30.26R
ELIZABETHTON   SUNNY     55  16  21 N5G13     30.24S
$$

TNZ012-013-036-069-073-074-222200-
CENTRAL EAST TENNESSEE

CITY           SKY/WX    TMP DP  RH WIND       PRES   REMARKS
KNOXVILLE      CLOUDY    59  20  22 NE13      30.23S
OAK RIDGE      MOSUNNY   60  16  18 NE8       30.25S
DOWNTOWN KNOXV SUNNY     61  16  17 CALM      30.24S
GATLINBURG     SUNNY     55  18  22 VRB3      30.23S
MORRISTOWN     SUNNY     57  16  19 N10       30.23S
JACKSBORO      SUNNY     55  18  22 VRB5G15   30.29S
$$

TNZ083-085-099-222200-
SOUTHEAST TENNESSEE

CITY           SKY/WX    TMP DP  RH WIND       PRES   REMARKS
CHATTANOOGA    PTSUNNY   63  19  18 NE13G21   30.22R
$$

SKY/WX REPORTED AS FAIR MEANS FEW OR NO CLOUDS BELOW
12 THOUSAND FEET.





USA.gov is the U.S. government's official web portal to all federal, state and local government web resources and services.